N7WWK-1 Weather Reports


Display with metric or nautical units.
time (UTC)temp
F
wind
direction
speed
MPH
gust
MPH
rain 1hr
in
rain 24hr
in
rain mn
in
humidity
%
barometer
mb
20260509171005 82 350 2.0 6.0 0.00 0.53 0.00 78 1011.2
20260509170217 83 233 1.0 3.0 0.00 0.53 0.00 78 1011.5
20260509165004 82 261 1.0 3.0 0.00 0.53 0.00 77 1011.7
20260509164005 83 184 1.0 2.0 0.00 0.53 0.00 78 1011.9
20260509163004 81 248 1.0 2.0 0.00 0.53 0.00 80 1012.0
20260509162004 81 345 1.0 3.0 0.00 0.53 0.00 81 1011.7
20260509161005 80 270 1.0 3.0 0.00 0.53 0.00 80 1011.5
20260509160005 81 204 1.0 2.0 0.00 0.53 0.00 82 1011.5
20260509155004 81 162 0.0 1.0 0.00 0.53 0.00 83 1011.8
20260509154004 80 151 1.0 3.0 0.00 0.53 0.00 85 1011.8
20260509153215 79 228 1.0 4.0 0.00 0.53 0.00 86 1011.8
20260509152005 78 164 1.0 2.0 0.00 0.53 0.00 87 1011.6
20260509151217 78 152 1.0 3.0 0.00 0.53 0.00 88 1011.5
20260509150005 78 144 0.0 1.0 0.00 0.53 0.00 88 1011.8
20260509145004 78 213 1.0 4.0 0.00 0.53 0.00 89 1011.8
20260509144004 77 197 1.0 3.0 0.00 0.53 0.00 89 1012.1
20260509143216 77 220 1.0 2.0 0.00 0.53 0.00 89 1012.1
20260509142005 77 171 1.0 3.0 0.00 0.53 0.00 89 1012.0
20260509141218 77 152 0.0 2.0 0.00 0.53 0.00 89 1011.9
20260509140006 76 187 1.0 2.0 0.00 0.53 0.00 91 1012.0
20260509135215 76 216 1.0 3.0 0.00 0.53 0.00 91 1011.6
20260509134004 75 196 0.0 2.0 0.00 0.53 0.00 91 1011.8
20260509133005 75 217 1.0 2.0 0.00 0.53 0.00 92 1011.7
20260509132005 74 111 0.0 2.0 0.00 0.53 0.00 93 1011.5
20260509131004 74 0 0.0 0.0 0.00 0.53 0.00 93 1011.5
20260509130005 74 147 0.0 2.0 0.00 0.53 0.00 95 1011.5
20260509125005 73 0 0.0 0.0 0.00 0.53 0.00 96 1011.4
20260509124005 72 128 0.0 1.0 0.00 0.53 0.00 98 1011.0
20260509123004 71 103 0.0 1.0 0.00 0.53 0.00 99 1011.1
20260509122218 71 79 0.0 1.0 0.00 0.53 0.00 99 1010.7
20260509121005 70 109 0.0 0.0 0.00 0.53 0.00 99 1011.1
20260509120005 70 115 0.0 1.0 0.00 0.53 0.00 99 1010.9
20260509115004 70 139 0.0 1.0 0.00 0.53 0.00 99 1011.2
20260509114004 69 136 0.0 2.0 0.00 0.53 0.00 99 1010.9
20260509113005 69 169 0.0 2.0 0.00 0.53 0.00 99 1011.0
20260509112004 69 0 0.0 0.0 0.00 0.53 0.00 99 1010.5
20260509111004 67 142 0.0 1.0 0.00 0.53 0.00 99 1010.5
20260509110005 67 0 0.0 0.0 0.00 0.53 0.00 99 1010.6
20260509105004 67 0 0.0 0.0 0.00 0.53 0.00 99 1010.8
20260509104004 66 0 0.0 0.0 0.00 0.53 0.00 99 1010.8
20260509103005 66 0 0.0 0.0 0.00 0.53 0.00 99 1010.8
20260509102004 66 0 0.0 0.0 0.00 0.53 0.00 99 1010.9
20260509101004 66 0 0.0 0.0 0.00 0.53 0.00 99 1011.2
20260509100006 66 0 0.0 0.0 0.00 0.53 0.00 99 1010.9
20260509095005 66 0 0.0 0.0 0.00 0.53 0.00 99 1011.0
20260509094218 66 0 0.0 0.0 0.00 0.53 0.00 99 1011.1
20260509093214 66 0 0.0 0.0 0.00 0.53 0.00 99 1011.0
20260509092004 66 0 0.0 0.0 0.00 0.53 0.00 99 1010.8
20260509091005 66 0 0.0 0.0 0.00 0.53 0.00 99 1011.1
20260509090005 66 0 0.0 0.0 0.00 0.53 0.00 99 1011.0
20260509085004 66 0 0.0 0.0 0.00 0.53 0.00 99 1011.0
20260509084219 66 0 0.0 0.0 0.00 0.53 0.00 99 1010.9
20260509083005 67 0 0.0 0.0 0.00 0.53 0.00 99 1010.8
20260509082004 67 0 0.0 0.0 0.00 0.53 0.00 99 1011.1
20260509081217 67 0 0.0 0.0 0.00 0.53 0.00 99 1011.3
20260509080217 67 78 0.0 3.0 0.00 0.53 0.00 99 1011.2
20260509075004 67 74 0.0 2.0 0.00 0.53 0.00 99 1011.0
20260509074214 67 81 0.0 1.0 0.00 0.53 0.00 99 1010.9
20260509073215 67 80 0.0 3.0 0.00 0.53 0.00 99 1011.3
20260509072004 67 81 1.0 4.0 0.00 0.53 0.00 99 1011.3
20260509071004 68 71 0.0 2.0 0.00 0.53 0.00 99 1011.6
20260509070005 67 75 0.0 2.0 0.00 0.53 0.00 99 1011.8
20260509065004 67 86 0.0 1.0 0.00 0.53 0.00 99 1012.0
20260509064005 68 0 0.0 0.0 0.00 0.53 0.00 99 1012.1
20260509063004 67 82 1.0 3.0 0.00 0.53 0.00 99 1012.1
20260509062004 68 82 0.0 2.0 0.00 0.53 0.00 99 1012.2
20260509061005 68 95 1.0 3.0 0.00 0.53 0.00 99 1012.3
20260509060005 68 99 0.0 2.0 0.00 0.53 0.00 99 1012.5
20260509055004 68 100 0.0 1.0 0.00 0.53 0.00 99 1012.6
20260509054005 69 94 1.0 3.0 0.00 0.53 0.00 99 1012.6
20260509053004 69 39 1.0 3.0 0.00 0.53 0.00 99 1012.5
20260509052005 69 52 1.0 3.0 0.00 0.53 0.00 99 1012.7
20260509051005 69 7 2.0 4.0 0.00 0.53 0.00 99 1013.1
20260509050005 70 5 2.0 4.0 0.00 0.53 0.00 99 1013.4
20260509045004 70 9 2.0 3.0 0.00 0.53 0.00 99 1013.5
20260509044005 70 10 2.0 4.0 0.00 0.53 0.00 99 1013.7
20260509043005 70 34 1.0 3.0 0.00 0.53 0.00 99 1013.6
20260509042218 70 46 1.0 3.0 0.00 0.53 0.00 99 1013.9
20260509041004 70 32 1.0 2.0 0.00 0.53 0.00 99 1013.7
20260509040020 70 12 1.0 3.0 0.00 0.53 0.00 99 1013.7
20260509035005 70 53 1.0 2.0 0.00 0.53 0.53 99 1013.7
20260509034004 70 0 0.0 0.0 0.00 0.53 0.53 99 1013.6
20260509033005 70 0 0.0 0.0 0.00 0.53 0.53 99 1013.4
20260509032004 70 51 0.0 1.0 0.00 0.53 0.53 99 1013.5
20260509031005 70 54 0.0 2.0 0.00 0.53 0.53 99 1013.5
20260509030005 71 0 0.0 0.0 0.00 0.53 0.53 99 1013.5
20260509025004 71 0 0.0 0.0 0.00 0.53 0.53 99 1013.4
20260509024218 71 0 0.0 0.0 0.00 0.53 0.53 99 1013.2
20260509023005 71 0 0.0 0.0 0.00 0.53 0.53 99 1013.3
20260509022004 71 0 0.0 0.0 0.00 0.53 0.53 99 1013.1
20260509021004 70 0 0.0 0.0 0.00 0.53 0.53 99 1012.9
20260509020005 71 0 0.0 0.0 0.00 0.53 0.53 99 1012.7
20260509015217 70 0 0.0 0.0 0.00 0.53 0.53 99 1012.6
20260509014218 71 0 0.0 0.0 0.00 0.53 0.53 99 1012.8
20260509013005 71 0 0.0 0.0 0.00 0.53 0.53 99 1012.8
20260509012215 71 60 0.0 1.0 0.00 0.53 0.53 99 1012.6
20260509011005 71 99 0.0 1.0 0.01 0.53 0.53 99 1012.5
20260509010006 71 84 0.0 2.0 0.02 0.53 0.53 99 1012.3
20260509005005 71 73 0.0 2.0 0.02 0.53 0.53 99 1012.3
20260509004005 71 0 0.0 0.0 0.02 0.53 0.53 99 1012.4
20260509003004 71 81 0.0 1.0 0.02 0.53 0.53 99 1012.1
20260509002005 71 104 0.0 2.0 0.02 0.53 0.53 99 1012.0
20260509001005 71 88 1.0 4.0 0.01 0.52 0.52 99 1011.7
20260509000005 71 70 0.0 2.0 0.00 0.51 0.51 99 1012.1
20260508235005 71 77 2.0 6.0 0.00 0.51 0.51 99 1011.7
20260508234005 71 98 1.0 3.0 0.00 0.51 0.51 99 1011.8
20260508233004 71 90 0.0 2.0 0.02 0.51 0.51 99 1011.5
20260508232216 71 90 1.0 4.0 0.02 0.51 0.51 99 1011.5
20260508231004 71 83 1.0 3.0 0.02 0.51 0.51 99 1011.3
20260508230005 71 80 2.0 7.0 0.02 0.51 0.51 99 1011.3
20260508225005 71 84 2.0 7.0 0.03 0.51 0.51 99 1011.1
20260508224004 71 81 1.0 5.0 0.04 0.51 0.51 99 1011.1
20260508223005 71 83 3.0 9.0 0.02 0.49 0.49 99 1011.2
20260508222005 72 86 2.0 8.0 0.03 0.49 0.49 99 1011.1
20260508221005 72 90 1.0 4.0 0.03 0.49 0.49 99 1011.1
20260508220005 71 97 2.0 6.0 0.26 0.49 0.49 99 1010.7
20260508215004 71 94 1.0 6.0 0.40 0.48 0.48 99 1010.9
20260508214004 72 32 1.0 3.0 0.42 0.47 0.47 98 1010.6
20260508213004 72 109 1.0 2.0 0.47 0.47 0.47 98 1011.2
20260508212005 71 100 1.0 4.0 0.46 0.46 0.46 97 1010.7
20260508211004 71 94 2.0 5.0 0.46 0.46 0.46 97 1010.1
20260508210005 73 9 3.0 9.0 0.23 0.23 0.23 94 1011.2
20260508205005 76 13 1.0 6.0 0.08 0.08 0.08 93 1011.0
20260508204005 78 84 2.0 11.0 0.05 0.05 0.05 89 1010.0
20260508203005 81 85 3.0 10.0 0.00 0.00 0.00 77 1009.8
20260508202218 82 85 4.0 13.0 0.00 0.00 0.00 76 1010.0
20260508201004 82 86 3.0 9.0 0.00 0.00 0.00 76 1010.1
20260508200005 84 89 3.0 11.0 0.00 0.00 0.00 72 1010.3
20260508195005 85 82 3.0 8.0 0.00 0.00 0.00 71 1010.2
20260508194004 84 79 4.0 14.0 0.00 0.00 0.00 71 1010.5
20260508193005 87 90 3.0 11.0 0.00 0.00 0.00 69 1010.8
20260508192214 87 82 3.0 11.0 0.00 0.00 0.00 70 1010.8
20260508191215 87 98 1.0 8.0 0.00 0.00 0.00 69 1011.0
20260508190216 87 92 1.0 6.0 0.00 0.00 0.00 71 1011.1
20260508185004 87 97 1.0 3.0 0.00 0.00 0.00 72 1011.3
20260508184004 85 94 3.0 10.0 0.00 0.00 0.00 72 1011.5
20260508183005 86 83 2.0 8.0 0.00 0.00 0.00 70 1011.7
20260508182214 85 106 1.0 4.0 0.00 0.00 0.00 71 1011.7
20260508181005 84 87 3.0 6.0 0.00 0.00 0.00 74 1011.9
20260508180005 84 84 2.0 10.0 0.00 0.00 0.00 75 1012.2
20260508175004 86 96 2.0 9.0 0.00 0.00 0.00 73 1012.0
20260508174005 85 102 1.0 4.0 0.00 0.00 0.00 74 1012.2
20260508173005 87 65 1.0 3.0 0.00 0.00 0.00 72 1012.5
20260508172004 84 77 1.0 4.0 0.00 0.00 0.00 77 1012.6